Location: Arbon
(43.0005°N, 0.7472°E)
Time: 21:49:51
(UTC+00:00)

Altair - Pass Details

Date: 28 November 2020
Orbit: 1501 x 1682 km, 47.2° (Epoch: 26 January)

Event Time Altitude Azimuth Distance (km) Brightness Sun altitude
Rises 20:35:15 0° 234° (SW) 4,728 10.5 -45.2°
Reaches altitude 10° 20:38:21 10° 233° (SW) 3,724 9.8 -45.8°
Enters shadow 20:42:22 30° 229° (SW) 2,493 8.7 -46.5°
Maximum altitude 20:47:41 75° 150° (SSE) 1,561 - -47.4°
Drops below altitude 10° 20:56:49 10° 67° (ENE) 3,656 - -49.0°
Sets 20:59:50 0° 66° (ENE) 4,638 - -49.5°
